| time (UTC) | temp F | wind direction | speed MPH | gust MPH | rain 1hr in | rain 24hr in | rain mn in | humidity % | barometer mb |
| 20260904232323 | 68 | 353 | 2.0 | 2.0 | 0.00 | 0.07 | 0.07 | 61 | 1016.9 |
| 20260904231819 | 70 | 357 | 2.0 | 6.0 | 0.00 | 0.07 | 0.07 | 61 | 1016.9 |
| 20260904231313 | 69 | 104 | 0.0 | 1.0 | 0.00 | 0.07 | 0.07 | 59 | 1016.9 |
| 20260904230808 | 69 | 146 | 0.0 | 3.0 | 0.00 | 0.07 | 0.07 | 61 | 1016.9 |
| 20260904230306 | 67 | 122 | 0.0 | 2.0 | 0.00 | 0.07 | 0.07 | 65 | 1016.9 |
| 20260904225802 | 67 | 302 | 1.0 | 4.0 | 0.00 | 0.07 | 0.07 | 64 | 1016.9 |
| 20260904225255 | 67 | 53 | 2.0 | 4.0 | 0.00 | 0.07 | 0.07 | 65 | 1016.9 |
| 20260904224754 | 67 | 14 | 1.0 | 2.0 | 0.00 | 0.07 | 0.07 | 65 | 1016.9 |
| 20260904224250 | 67 | 2 | 2.0 | 4.0 | 0.00 | 0.07 | 0.07 | 65 | 1016.5 |
| 20260904223749 | 67 | 357 | 2.0 | 4.0 | 0.00 | 0.07 | 0.07 | 65 | 1016.9 |
| 20260904223244 | 67 | 208 | 1.0 | 3.0 | 0.00 | 0.07 | 0.07 | 65 | 1016.9 |
| 20260904222741 | 67 | 19 | 3.0 | 4.0 | 0.00 | 0.07 | 0.07 | 64 | 1016.9 |
| 20260904222235 | 67 | 16 | 2.0 | 7.0 | 0.00 | 0.07 | 0.07 | 62 | 1016.9 |
| 20260904221735 | 68 | 350 | 1.0 | 4.0 | 0.00 | 0.07 | 0.07 | 62 | 1016.9 |
| 20260904221230 | 67 | 147 | 2.0 | 2.0 | 0.00 | 0.07 | 0.07 | 62 | 1016.5 |
| 20260904220725 | 67 | 44 | 2.0 | 3.0 | 0.00 | 0.07 | 0.07 | 63 | 1016.5 |
| 20260904220220 | 67 | 25 | 1.0 | 3.0 | 0.00 | 0.07 | 0.07 | 62 | 1016.9 |
| 20260904215720 | 68 | 24 | 2.0 | 3.0 | 0.00 | 0.07 | 0.07 | 61 | 1016.5 |
| 20260904215215 | 68 | 51 | 1.0 | 3.0 | 0.00 | 0.07 | 0.07 | 62 | 1016.9 |
| 20260904214710 | 67 | 20 | 3.0 | 6.0 | 0.00 | 0.07 | 0.07 | 61 | 1016.5 |
| 20260904214206 | 67 | 67 | 3.0 | 4.0 | 0.00 | 0.07 | 0.07 | 63 | 1016.9 |
| 20260904213704 | 66 | 71 | 2.0 | 4.0 | 0.00 | 0.07 | 0.07 | 63 | 1016.9 |
| 20260904213200 | 66 | 9 | 3.0 | 6.0 | 0.00 | 0.07 | 0.07 | 65 | 1016.5 |
| 20260904212655 | 67 | 148 | 2.0 | 4.0 | 0.00 | 0.07 | 0.07 | 62 | 1016.9 |
| 20260904212149 | 66 | 55 | 1.0 | 4.0 | 0.00 | 0.07 | 0.07 | 63 | 1016.9 |
| 20260904211644 | 67 | 39 | 2.0 | 4.0 | 0.00 | 0.07 | 0.07 | 62 | 1016.9 |
| 20260904211140 | 68 | 52 | 2.0 | 4.0 | 0.00 | 0.07 | 0.07 | 61 | 1016.9 |
| 20260904210639 | 68 | 76 | 1.0 | 6.0 | 0.00 | 0.07 | 0.07 | 62 | 1016.9 |
| 20260904210135 | 68 | 258 | 3.0 | 6.0 | 0.00 | 0.07 | 0.07 | 61 | 1016.5 |
| 20260904205631 | 67 | 139 | 1.0 | 2.0 | 0.00 | 0.07 | 0.07 | 64 | 1016.5 |
| 20260904205127 | 66 | 186 | 2.0 | 3.0 | 0.00 | 0.07 | 0.07 | 66 | 1016.5 |
| 20260904204623 | 66 | 90 | 1.0 | 2.0 | 0.00 | 0.07 | 0.07 | 66 | 1016.5 |
| 20260904204119 | 66 | 120 | 1.0 | 3.0 | 0.00 | 0.07 | 0.07 | 68 | 1016.5 |
| 20260904203614 | 66 | 88 | 2.0 | 6.0 | 0.00 | 0.07 | 0.07 | 68 | 1016.5 |
| 20260904203111 | 67 | 89 | 1.0 | 3.0 | 0.00 | 0.07 | 0.07 | 66 | 1016.5 |
| 20260904202606 | 66 | 238 | 1.0 | 3.0 | 0.00 | 0.07 | 0.07 | 69 | 1016.5 |
| 20260904202102 | 65 | 61 | 1.0 | 1.0 | 0.00 | 0.07 | 0.07 | 69 | 1016.2 |
| 20260904201556 | 64 | 101 | 1.0 | 3.0 | 0.00 | 0.07 | 0.07 | 71 | 1016.5 |
| 20260904201052 | 63 | 44 | 3.0 | 6.0 | 0.00 | 0.07 | 0.07 | 72 | 1016.5 |
| 20260904200550 | 63 | 51 | 2.0 | 6.0 | 0.00 | 0.07 | 0.07 | 73 | 1016.2 |
| 20260904200045 | 63 | 34 | 3.0 | 7.0 | 0.00 | 0.07 | 0.07 | 72 | 1016.2 |
| 20260904195543 | 63 | 325 | 1.0 | 3.0 | 0.00 | 0.07 | 0.07 | 72 | 1016.5 |
| 20260904195038 | 64 | 3 | 2.0 | 3.0 | 0.00 | 0.07 | 0.07 | 70 | 1016.5 |
| 20260904194533 | 62 | 331 | 2.0 | 3.0 | 0.00 | 0.07 | 0.07 | 73 | 1016.5 |
| 20260904194027 | 61 | 46 | 3.0 | 7.0 | 0.00 | 0.07 | 0.07 | 74 | 1016.5 |
| 20260904193522 | 62 | 3 | 6.0 | 8.0 | 0.00 | 0.07 | 0.07 | 71 | 1016.5 |
| 20260904193019 | 63 | 27 | 3.0 | 4.0 | 0.00 | 0.07 | 0.07 | 71 | 1016.2 |
| 20260904192518 | 63 | 347 | 2.0 | 4.0 | 0.00 | 0.07 | 0.07 | 70 | 1016.5 |
| 20260904192014 | 63 | 64 | 1.0 | 3.0 | 0.00 | 0.07 | 0.07 | 70 | 1016.5 |
| 20260904191510 | 63 | 110 | 0.0 | 3.0 | 0.00 | 0.07 | 0.07 | 71 | 1016.2 |
| 20260904191007 | 62 | 33 | 2.0 | 3.0 | 0.00 | 0.07 | 0.07 | 71 | 1016.2 |
| 20260904190502 | 62 | 82 | 0.0 | 3.0 | 0.00 | 0.07 | 0.07 | 73 | 1016.2 |
| 20260904185958 | 61 | 54 | 1.0 | 2.0 | 0.00 | 0.07 | 0.07 | 74 | 1016.2 |
| 20260904185454 | 60 | 89 | 2.0 | 3.0 | 0.00 | 0.07 | 0.07 | 74 | 1016.2 |
| 20260904184948 | 62 | 346 | 4.0 | 4.0 | 0.00 | 0.07 | 0.07 | 73 | 1016.2 |
| 20260904184443 | 62 | 81 | 1.0 | 2.0 | 0.00 | 0.07 | 0.07 | 72 | 1016.2 |
| 20260904183938 | 62 | 228 | 1.0 | 3.0 | 0.00 | 0.07 | 0.07 | 72 | 1016.2 |
| 20260904183433 | 62 | 262 | 1.0 | 3.0 | 0.00 | 0.07 | 0.07 | 73 | 1016.2 |
| 20260904182929 | 61 | 100 | 0.0 | 2.0 | 0.00 | 0.07 | 0.07 | 75 | 1016.2 |
| 20260904182424 | 61 | 92 | 0.0 | 0.0 | 0.00 | 0.07 | 0.07 | 75 | 1015.8 |
| 20260904181919 | 61 | 42 | 0.0 | 2.0 | 0.00 | 0.07 | 0.07 | 76 | 1015.8 |
| 20260904181414 | 62 | 309 | 2.0 | 2.0 | 0.00 | 0.07 | 0.07 | 75 | 1015.8 |
| 20260904180909 | 62 | 113 | 1.0 | 2.0 | 0.00 | 0.07 | 0.07 | 77 | 1015.8 |
| 20260904180404 | 61 | 136 | 0.0 | 1.0 | 0.00 | 0.07 | 0.07 | 77 | 1015.8 |
| 20260904175903 | 61 | 72 | 1.0 | 2.0 | 0.00 | 0.07 | 0.07 | 78 | 1015.8 |
| 20260904175402 | 62 | 161 | 1.0 | 1.0 | 0.00 | 0.07 | 0.07 | 77 | 1015.8 |
| 20260904174856 | 63 | 83 | 2.0 | 2.0 | 0.00 | 0.07 | 0.07 | 77 | 1015.8 |
| 20260904174353 | 62 | 81 | 0.0 | 1.0 | 0.00 | 0.07 | 0.07 | 76 | 1015.8 |
| 20260904173849 | 62 | 111 | 0.0 | 1.0 | 0.00 | 0.07 | 0.07 | 78 | 1015.8 |
| 20260904173344 | 62 | 63 | 1.0 | 1.0 | 0.00 | 0.07 | 0.07 | 77 | 1015.8 |
| 20260904172840 | 60 | 78 | 1.0 | 1.0 | 0.00 | 0.07 | 0.07 | 79 | 1015.8 |
| 20260904172339 | 60 | 78 | 0.0 | 2.0 | 0.00 | 0.07 | 0.07 | 80 | 1015.8 |
| 20260904171839 | 61 | 97 | 0.0 | 1.0 | 0.00 | 0.07 | 0.07 | 80 | 1015.8 |
| 20260904171334 | 61 | 251 | 1.0 | 3.0 | 0.00 | 0.07 | 0.07 | 80 | 1015.8 |
| 20260904170831 | 60 | 191 | 0.0 | 2.0 | 0.00 | 0.07 | 0.07 | 81 | 1015.8 |
| 20260904170326 | 60 | 179 | 0.0 | 1.0 | 0.00 | 0.07 | 0.07 | 83 | 1015.8 |
| 20260904165821 | 59 | 136 | 0.0 | 2.0 | 0.00 | 0.07 | 0.07 | 85 | 1015.8 |
| 20260904165319 | 58 | 159 | 1.0 | 1.0 | 0.00 | 0.07 | 0.07 | 85 | 1015.8 |
| 20260904164815 | 58 | 114 | 0.0 | 1.0 | 0.00 | 0.07 | 0.07 | 86 | 1015.8 |
| 20260904164309 | 57 | 136 | 2.0 | 2.0 | 0.00 | 0.07 | 0.07 | 87 | 1015.8 |
| 20260904163806 | 57 | 188 | 2.0 | 3.0 | 0.00 | 0.07 | 0.07 | 88 | 1016.2 |
| 20260904163306 | 57 | 100 | 0.0 | 2.0 | 0.00 | 0.07 | 0.07 | 88 | 1015.8 |
| 20260904162805 | 56 | 96 | 1.0 | 1.0 | 0.00 | 0.07 | 0.07 | 89 | 1016.2 |
| 20260904162300 | 56 | 100 | 0.0 | 0.0 | 0.00 | 0.07 | 0.07 | 89 | 1015.8 |
| 20260904161755 | 56 | 208 | 0.0 | 2.0 | 0.00 | 0.07 | 0.07 | 90 | 1015.8 |
| 20260904161250 | 56 | 158 | 1.0 | 2.0 | 0.00 | 0.07 | 0.07 | 91 | 1015.8 |
| 20260904160746 | 55 | 77 | 0.0 | 0.0 | 0.00 | 0.07 | 0.07 | 91 | 1015.8 |
| 20260904160242 | 55 | 73 | 0.0 | 1.0 | 0.00 | 0.07 | 0.07 | 92 | 1015.8 |
| 20260904155741 | 55 | 72 | 0.0 | 0.0 | 0.00 | 0.07 | 0.07 | 93 | 1015.8 |
| 20260904155240 | 55 | 72 | 0.0 | 0.0 | 0.00 | 0.07 | 0.07 | 93 | 1015.8 |
| 20260904154738 | 55 | 72 | 0.0 | 0.0 | 0.00 | 0.07 | 0.07 | 93 | 1015.8 |
| 20260904154233 | 54 | 72 | 0.0 | 0.0 | 0.00 | 0.07 | 0.07 | 93 | 1015.8 |
| 20260904153729 | 54 | 72 | 0.0 | 0.0 | 0.00 | 0.07 | 0.07 | 93 | 1015.5 |
| 20260904153225 | 54 | 72 | 0.0 | 1.0 | 0.00 | 0.07 | 0.07 | 94 | 1015.5 |
| 20260904152721 | 54 | 72 | 0.0 | 0.0 | 0.00 | 0.07 | 0.07 | 94 | 1015.2 |
| 20260904152216 | 54 | 74 | 0.0 | 0.0 | 0.00 | 0.07 | 0.07 | 94 | 1015.2 |
| 20260904151711 | 53 | 74 | 1.0 | 2.0 | 0.00 | 0.07 | 0.07 | 94 | 1015.2 |
| 20260904151209 | 53 | 74 | 0.0 | 1.0 | 0.00 | 0.07 | 0.07 | 94 | 1015.2 |
| 20260904150705 | 54 | 74 | 0.0 | 1.0 | 0.00 | 0.07 | 0.07 | 94 | 1015.2 |
| 20260904150201 | 53 | 74 | 0.0 | 1.0 | 0.00 | 0.07 | 0.07 | 94 | 1015.2 |
| 20260904145659 | 53 | 74 | 0.0 | 1.0 | 0.00 | 0.07 | 0.07 | 94 | 1015.2 |
| 20260904145154 | 53 | 98 | 0.0 | 1.0 | 0.00 | 0.07 | 0.07 | 94 | 1015.2 |
| 20260904144649 | 53 | 104 | 0.0 | 1.0 | 0.07 | 0.07 | 0.07 | 94 | 1015.2 |
| 20260904144145 | 53 | 95 | 1.0 | 1.0 | 0.07 | 0.07 | 0.07 | 94 | 1014.8 |
| 20260904143641 | 52 | 97 | 0.0 | 0.0 | 0.00 | 0.06 | 0.06 | 94 | 1014.8 |
| 20260904143137 | 52 | 109 | 0.0 | 0.0 | 0.05 | 0.06 | 0.06 | 94 | 1014.8 |
| 20260904142634 | 52 | 109 | 0.0 | 0.0 | 0.05 | 0.06 | 0.06 | 94 | 1015.2 |
| 20260904142129 | 52 | 109 | 0.0 | 1.0 | 0.07 | 0.05 | 0.05 | 94 | 1015.2 |
| 20260904141624 | 52 | 103 | 0.0 | 1.0 | 0.14 | 0.05 | 0.05 | 94 | 1014.8 |
| 20260904141119 | 52 | 6 | 1.0 | 2.0 | 0.12 | 0.04 | 0.04 | 94 | 1015.2 |
| 20260904140610 | 52 | 93 | 1.0 | 1.0 | 0.05 | 0.03 | 0.03 | 94 | 1014.8 |
| 20260904140109 | 52 | 178 | 1.0 | 1.0 | 0.00 | 0.02 | 0.02 | 94 | 1015.2 |
| 20260904135608 | 52 | 155 | 1.0 | 1.0 | 0.00 | 0.02 | 0.02 | 94 | 1014.8 |
| 20260904135105 | 52 | 152 | 1.0 | 1.0 | 0.00 | 0.02 | 0.02 | 93 | 1014.8 |
| 20260904134600 | 52 | 155 | 1.0 | 1.0 | 0.00 | 0.02 | 0.02 | 93 | 1014.8 |
| 20260904134054 | 52 | 154 | 0.0 | 0.0 | 0.00 | 0.02 | 0.02 | 93 | 1014.8 |
| 20260904133549 | 52 | 154 | 0.0 | 1.0 | 0.00 | 0.02 | 0.02 | 93 | 1014.8 |
| 20260904133045 | 52 | 154 | 0.0 | 1.0 | 0.00 | 0.02 | 0.02 | 93 | 1014.5 |
| 20260904132539 | 52 | 155 | 0.0 | 0.0 | 0.00 | 0.02 | 0.02 | 93 | 1014.5 |
| 20260904132039 | 52 | 154 | 0.0 | 1.0 | 0.00 | 0.02 | 0.02 | 93 | 1014.5 |
| 20260904131538 | 52 | 165 | 0.0 | 0.0 | 0.07 | 0.02 | 0.02 | 93 | 1014.5 |
| 20260904131034 | 51 | 170 | 1.0 | 1.0 | 0.07 | 0.02 | 0.02 | 93 | 1014.5 |
| 20260904130534 | 51 | 162 | 0.0 | 0.0 | 0.00 | 0.01 | 0.01 | 93 | 1014.5 |
| 20260904130029 | 51 | 153 | 0.0 | 1.0 | 0.00 | 0.01 | 0.01 | 92 | 1014.5 |
| 20260904125525 | 51 | 138 | 3.0 | 6.0 | 0.00 | 0.01 | 0.01 | 92 | 1014.5 |
| 20260904125020 | 52 | 142 | 4.0 | 4.0 | 0.00 | 0.01 | 0.01 | 92 | 1014.1 |
| 20260904124515 | 52 | 102 | 2.0 | 2.0 | 0.00 | 0.01 | 0.01 | 92 | 1014.1 |
| 20260904124011 | 52 | 102 | 0.0 | 0.0 | 0.00 | 0.01 | 0.01 | 92 | 1014.1 |
| 20260904123510 | 52 | 102 | 0.0 | 0.0 | 0.05 | 0.01 | 0.01 | 92 | 1014.1 |
| 20260904123007 | 52 | 102 | 0.0 | 0.0 | 0.00 | 0.00 | 0.00 | 92 | 1014.1 |
| 20260904122501 | 52 | 102 | 0.0 | 0.0 | 0.00 | 0.00 | 0.00 | 92 | 1013.8 |
| 20260904121955 | 52 | 102 | 0.0 | 0.0 | 0.00 | 0.00 | 0.00 | 92 | 1013.8 |
| 20260904121451 | 52 | 102 | 0.0 | 0.0 | 0.00 | 0.00 | 0.00 | 92 | 1013.8 |
| 20260904120948 | 52 | 102 | 0.0 | 0.0 | 0.00 | 0.00 | 0.00 | 92 | 1013.8 |
| 20260904120443 | 52 | 102 | 1.0 | 2.0 | 0.00 | 0.00 | 0.00 | 92 | 1013.8 |
| 20260904115938 | 52 | 102 | 0.0 | 1.0 | 0.00 | 0.00 | 0.00 | 92 | 1013.5 |
| 20260904115433 | 52 | 102 | 0.0 | 1.0 | 0.00 | 0.00 | 0.00 | 92 | 1013.8 |
| 20260904114928 | 52 | 102 | 0.0 | 1.0 | 0.00 | 0.00 | 0.00 | 92 | 1013.8 |
| 20260904114428 | 52 | 102 | 0.0 | 1.0 | 0.00 | 0.00 | 0.00 | 92 | 1013.8 |
| 20260904113924 | 52 | 102 | 0.0 | 2.0 | 0.00 | 0.00 | 0.00 | 92 | 1013.8 |
| 20260904113423 | 52 | 102 | 1.0 | 1.0 | 0.00 | 0.00 | 0.00 | 92 | 1013.8 |
| 20260904112922 | 52 | 102 | 0.0 | 1.0 | 0.00 | 0.00 | 0.00 | 92 | 1013.8 |
| 20260904112418 | 52 | 102 | 1.0 | 1.0 | 0.00 | 0.00 | 0.00 | 91 | 1013.8 |
| 20260904111914 | 51 | 102 | 0.0 | 0.0 | 0.00 | 0.00 | 0.00 | 91 | 1013.8 |
| 20260904111409 | 51 | 102 | 0.0 | 0.0 | 0.00 | 0.00 | 0.00 | 91 | 1013.5 |
| 20260904110905 | 51 | 102 | 0.0 | 0.0 | 0.00 | 0.00 | 0.00 | 91 | 1013.5 |
| 20260904110403 | 51 | 102 | 0.0 | 0.0 | 0.00 | 0.00 | 0.00 | 91 | 1013.8 |
| 20260904105859 | 51 | 102 | 0.0 | 0.0 | 0.00 | 0.00 | 0.00 | 91 | 1013.5 |
| 20260904105354 | 51 | 102 | 0.0 | 0.0 | 0.00 | 0.00 | 0.00 | 91 | 1013.8 |
| 20260904104849 | 51 | 102 | 0.0 | 0.0 | 0.00 | 0.00 | 0.00 | 91 | 1013.5 |
| 20260904104344 | 52 | 102 | 0.0 | 0.0 | 0.00 | 0.00 | 0.00 | 90 | 1013.5 |
| 20260904103841 | 52 | 102 | 0.0 | 1.0 | 0.00 | 0.00 | 0.00 | 90 | 1013.5 |
| 20260904103340 | 52 | 102 | 2.0 | 2.0 | 0.00 | 0.00 | 0.00 | 90 | 1013.5 |
| 20260904102836 | 53 | 102 | 0.0 | 0.0 | 0.00 | 0.00 | 0.00 | 90 | 1013.5 |
| 20260904102331 | 52 | 102 | 0.0 | 0.0 | 0.00 | 0.00 | 0.00 | 90 | 1013.5 |
| 20260904101827 | 52 | 102 | 0.0 | 0.0 | 0.00 | 0.00 | 0.00 | 90 | 1013.5 |
| 20260904101324 | 52 | 102 | 0.0 | 0.0 | 0.00 | 0.00 | 0.00 | 91 | 1013.1 |
| 20260904100819 | 52 | 102 | 0.0 | 0.0 | 0.00 | 0.00 | 0.00 | 91 | 1013.1 |
| 20260904100316 | 52 | 102 | 0.0 | 1.0 | 0.00 | 0.00 | 0.00 | 92 | 1013.1 |
| 20260904095815 | 52 | 102 | 0.0 | 1.0 | 0.00 | 0.00 | 0.00 | 92 | 1013.1 |
| 20260904095310 | 52 | 101 | 1.0 | 1.0 | 0.00 | 0.00 | 0.00 | 92 | 1013.1 |
| 20260904094805 | 52 | 101 | 0.0 | 1.0 | 0.00 | 0.00 | 0.00 | 93 | 1013.1 |
| 20260904094300 | 51 | 101 | 0.0 | 1.0 | 0.00 | 0.00 | 0.00 | 93 | 1013.1 |
| 20260904093757 | 51 | 101 | 0.0 | 1.0 | 0.00 | 0.00 | 0.00 | 93 | 1013.1 |
| 20260904093251 | 51 | 102 | 0.0 | 0.0 | 0.00 | 0.00 | 0.00 | 93 | 1013.1 |
| 20260904092746 | 51 | 102 | 0.0 | 0.0 | 0.00 | 0.00 | 0.00 | 93 | 1013.1 |
| 20260904092243 | 50 | 102 | 0.0 | 0.0 | 0.00 | 0.00 | 0.00 | 93 | 1013.1 |
| 20260904091738 | 50 | 102 | 0.0 | 0.0 | 0.00 | 0.00 | 0.00 | 93 | 1013.5 |
| 20260904091233 | 50 | 102 | 0.0 | 0.0 | 0.00 | 0.00 | 0.00 | 93 | 1013.5 |
| 20260904090729 | 50 | 102 | 0.0 | 0.0 | 0.00 | 0.00 | 0.00 | 93 | 1013.5 |
| 20260904090224 | 50 | 102 | 0.0 | 1.0 | 0.00 | 0.00 | 0.00 | 93 | 1013.5 |
| 20260904085719 | 50 | 102 | 2.0 | 2.0 | 0.00 | 0.00 | 0.00 | 93 | 1013.5 |
| 20260904085214 | 50 | 151 | 0.0 | 0.0 | 0.00 | 0.00 | 0.00 | 93 | 1013.5 |
| 20260904084708 | 50 | 146 | 0.0 | 0.0 | 0.00 | 0.00 | 0.00 | 93 | 1013.8 |
| 20260904084159 | 51 | 141 | 1.0 | 1.0 | 0.00 | 0.00 | 0.00 | 92 | 1013.5 |
| 20260904083655 | 51 | 132 | 0.0 | 0.0 | 0.00 | 0.00 | 0.00 | 92 | 1013.8 |
| 20260904083152 | 51 | 131 | 0.0 | 0.0 | 0.00 | 0.00 | 0.00 | 92 | 1013.8 |
| 20260904082646 | 51 | 132 | 0.0 | 1.0 | 0.00 | 0.00 | 0.00 | 92 | 1013.8 |
| 20260904082141 | 51 | 132 | 0.0 | 0.0 | 0.00 | 0.00 | 0.00 | 92 | 1013.8 |
| 20260904081631 | 51 | 132 | 0.0 | 0.0 | 0.00 | 0.00 | 0.00 | 92 | 1013.5 |
| 20260904081126 | 51 | 132 | 0.0 | 0.0 | 0.00 | 0.00 | 0.00 | 92 | 1013.8 |
| 20260904080621 | 51 | 132 | 0.0 | 0.0 | 0.00 | 0.00 | 0.00 | 92 | 1013.8 |
| 20260904080118 | 51 | 131 | 0.0 | 0.0 | 0.00 | 0.00 | 0.00 | 92 | 1013.8 |
| 20260904075613 | 51 | 131 | 1.0 | 1.0 | 0.00 | 0.00 | 0.00 | 92 | 1013.8 |
| 20260904075112 | 51 | 131 | 0.0 | 1.0 | 0.00 | 0.00 | 0.00 | 91 | 1013.8 |
| 20260904074607 | 51 | 132 | 0.0 | 1.0 | 0.00 | 0.00 | 0.00 | 92 | 1013.8 |
| 20260904074102 | 51 | 126 | 0.0 | 0.0 | 0.00 | 0.00 | 0.00 | 91 | 1013.8 |
| 20260904073556 | 51 | 126 | 0.0 | 0.0 | 0.00 | 0.00 | 0.00 | 91 | 1013.8 |
| 20260904073053 | 51 | 126 | 0.0 | 0.0 | 0.00 | 0.00 | 0.00 | 91 | 1013.8 |
| 20260904072548 | 51 | 126 | 0.0 | 0.0 | 0.00 | 0.00 | 0.00 | 91 | 1013.5 |
| 20260904072044 | 52 | 126 | 0.0 | 0.0 | 0.00 | 0.00 | 0.00 | 90 | 1013.8 |
| 20260904071539 | 52 | 126 | 0.0 | 0.0 | 0.00 | 0.00 | 0.00 | 90 | 1013.8 |
| 20260904071034 | 52 | 126 | 0.0 | 0.0 | 0.00 | 0.00 | 0.00 | 90 | 1013.8 |
| 20260904070533 | 52 | 126 | 0.0 | 0.0 | 0.00 | 0.00 | 0.00 | 90 | 1013.8 |
| 20260904070028 | 52 | 126 | 0.0 | 0.0 | 0.00 | 0.06 | 0.06 | 90 | 1013.8 |
| 20260904065523 | 52 | 126 | 0.0 | 0.0 | 0.00 | 0.06 | 0.06 | 90 | 1013.8 |
| 20260904065019 | 52 | 126 | 0.0 | 0.0 | 0.00 | 0.06 | 0.06 | 90 | 1013.5 |
| 20260904064515 | 52 | 126 | 0.0 | 0.0 | 0.00 | 0.06 | 0.06 | 90 | 1013.5 |
| 20260904064009 | 52 | 151 | 0.0 | 0.0 | 0.00 | 0.06 | 0.06 | 90 | 1013.5 |
| 20260904063506 | 52 | 151 | 0.0 | 0.0 | 0.00 | 0.06 | 0.06 | 89 | 1013.5 |
| 20260904063000 | 52 | 168 | 0.0 | 1.0 | 0.00 | 0.06 | 0.06 | 89 | 1013.5 |
| 20260904062456 | 52 | 168 | 0.0 | 0.0 | 0.00 | 0.06 | 0.06 | 89 | 1013.5 |
| 20260904061952 | 52 | 157 | 0.0 | 0.0 | 0.00 | 0.06 | 0.06 | 89 | 1013.5 |
| 20260904061448 | 53 | 137 | 0.0 | 0.0 | 0.00 | 0.06 | 0.06 | 88 | 1013.5 |
| 20260904060944 | 53 | 137 | 0.0 | 0.0 | 0.00 | 0.06 | 0.06 | 88 | 1013.5 |
| 20260904060440 | 53 | 137 | 0.0 | 0.0 | 0.00 | 0.06 | 0.06 | 88 | 1013.5 |
| 20260904055935 | 53 | 137 | 0.0 | 0.0 | 0.00 | 0.06 | 0.06 | 88 | 1013.5 |
| 20260904055431 | 53 | 137 | 0.0 | 0.0 | 0.00 | 0.06 | 0.06 | 88 | 1013.5 |
| 20260904054926 | 53 | 137 | 0.0 | 0.0 | 0.00 | 0.06 | 0.06 | 88 | 1013.5 |
| 20260904054421 | 53 | 137 | 0.0 | 0.0 | 0.00 | 0.06 | 0.06 | 88 | 1013.1 |
| 20260904053917 | 53 | 137 | 0.0 | 0.0 | 0.00 | 0.06 | 0.06 | 88 | 1013.5 |
| 20260904053416 | 53 | 137 | 0.0 | 0.0 | 0.00 | 0.06 | 0.06 | 88 | 1013.5 |
| 20260904052912 | 53 | 137 | 0.0 | 1.0 | 0.00 | 0.06 | 0.06 | 89 | 1013.5 |
| 20260904052409 | 53 | 91 | 0.0 | 0.0 | 0.00 | 0.06 | 0.06 | 89 | 1013.5 |
| 20260904051905 | 53 | 92 | 0.0 | 1.0 | 0.00 | 0.06 | 0.06 | 89 | 1013.5 |
| 20260904051400 | 53 | 107 | 0.0 | 0.0 | 0.00 | 0.06 | 0.06 | 89 | 1013.5 |
| 20260904050854 | 53 | 86 | 0.0 | 0.0 | 0.00 | 0.06 | 0.06 | 89 | 1013.5 |
| 20260904050351 | 53 | 91 | 0.0 | 0.0 | 0.00 | 0.06 | 0.06 | 88 | 1013.5 |
| 20260904045845 | 53 | 88 | 0.0 | 0.0 | 0.00 | 0.06 | 0.06 | 88 | 1013.5 |
| 20260904045340 | 53 | 87 | 0.0 | 0.0 | 0.00 | 0.06 | 0.06 | 88 | 1013.5 |
| 20260904044835 | 53 | 89 | 0.0 | 0.0 | 0.00 | 0.06 | 0.06 | 88 | 1013.5 |
| 20260904044331 | 53 | 89 | 0.0 | 0.0 | 0.00 | 0.06 | 0.06 | 88 | 1013.5 |
| 20260904043827 | 53 | 90 | 0.0 | 0.0 | 0.00 | 0.06 | 0.06 | 88 | 1013.5 |
| 20260904043324 | 53 | 101 | 0.0 | 1.0 | 0.00 | 0.06 | 0.06 | 88 | 1013.5 |
| 20260904042824 | 53 | 64 | 1.0 | 1.0 | 0.00 | 0.06 | 0.06 | 87 | 1013.5 |
| 20260904042320 | 53 | 94 | 0.0 | 1.0 | 0.00 | 0.06 | 0.06 | 87 | 1013.5 |
| 20260904041820 | 54 | 110 | 0.0 | 0.0 | 0.00 | 0.06 | 0.06 | 87 | 1013.5 |
| 20260904041316 | 54 | 147 | 0.0 | 0.0 | 0.00 | 0.06 | 0.06 | 86 | 1013.5 |
| 20260904040812 | 54 | 100 | 0.0 | 0.0 | 0.00 | 0.06 | 0.06 | 86 | 1013.5 |
| 20260904040306 | 54 | 177 | 0.0 | 1.0 | 0.00 | 0.06 | 0.06 | 86 | 1013.5 |
| 20260904035803 | 54 | 125 | 0.0 | 1.0 | 0.00 | 0.06 | 0.06 | 85 | 1013.5 |
| 20260904035259 | 55 | 117 | 1.0 | 1.0 | 0.00 | 0.06 | 0.06 | 85 | 1013.5 |
| 20260904034757 | 55 | 97 | 0.0 | 1.0 | 0.00 | 0.06 | 0.06 | 84 | 1013.5 |
| 20260904034253 | 55 | 114 | 0.0 | 1.0 | 0.00 | 0.06 | 0.06 | 84 | 1013.1 |
| 20260904033749 | 55 | 112 | 0.0 | 2.0 | 0.00 | 0.06 | 0.06 | 84 | 1013.5 |
| 20260904033245 | 55 | 13 | 1.0 | 3.0 | 0.00 | 0.06 | 0.06 | 84 | 1013.5 |
| 20260904032741 | 55 | 71 | 0.0 | 1.0 | 0.00 | 0.06 | 0.06 | 84 | 1013.1 |
| 20260904032240 | 55 | 26 | 1.0 | 2.0 | 0.00 | 0.06 | 0.06 | 84 | 1013.1 |
| 20260904031735 | 55 | 109 | 0.0 | 2.0 | 0.00 | 0.06 | 0.06 | 84 | 1013.5 |
| 20260904031230 | 55 | 107 | 0.0 | 1.0 | 0.00 | 0.06 | 0.06 | 84 | 1013.1 |
| 20260904030720 | 55 | 105 | 0.0 | 1.0 | 0.00 | 0.06 | 0.06 | 83 | 1013.1 |
| 20260904030215 | 56 | 112 | 0.0 | 0.0 | 0.00 | 0.06 | 0.06 | 82 | 1013.1 |
| 20260904025707 | 56 | 111 | 0.0 | 2.0 | 0.00 | 0.06 | 0.06 | 81 | 1012.8 |
| 20260904025201 | 57 | 121 | 0.0 | 1.0 | 0.00 | 0.06 | 0.06 | 81 | 1012.8 |
| 20260904024656 | 57 | 102 | 1.0 | 1.0 | 0.00 | 0.06 | 0.06 | 79 | 1012.8 |
| 20260904024151 | 58 | 85 | 1.0 | 1.0 | 0.00 | 0.06 | 0.06 | 79 | 1012.8 |
| 20260904023647 | 58 | 96 | 0.0 | 0.0 | 0.00 | 0.06 | 0.06 | 78 | 1012.8 |
| 20260904023143 | 59 | 100 | 0.0 | 0.0 | 0.00 | 0.06 | 0.06 | 77 | 1012.5 |
| 20260904022637 | 59 | 96 | 0.0 | 0.0 | 0.00 | 0.06 | 0.06 | 77 | 1012.5 |
| 20260904022134 | 59 | 108 | 0.0 | 0.0 | 0.00 | 0.06 | 0.06 | 76 | 1012.5 |
| 20260904021630 | 59 | 108 | 0.0 | 0.0 | 0.00 | 0.06 | 0.06 | 76 | 1012.5 |
| 20260904021125 | 60 | 109 | 0.0 | 0.0 | 0.00 | 0.06 | 0.06 | 76 | 1012.5 |
| 20260904020621 | 60 | 109 | 0.0 | 0.0 | 0.00 | 0.06 | 0.06 | 75 | 1012.5 |
| 20260904020115 | 60 | 100 | 0.0 | 1.0 | 0.00 | 0.06 | 0.06 | 75 | 1012.5 |
| 20260904015615 | 60 | 100 | 0.0 | 1.0 | 0.00 | 0.06 | 0.06 | 74 | 1012.5 |
| 20260904015114 | 60 | 102 | 0.0 | 0.0 | 0.00 | 0.06 | 0.06 | 74 | 1012.5 |
| 20260904014608 | 60 | 81 | 2.0 | 2.0 | 0.00 | 0.06 | 0.06 | 74 | 1012.5 |
| 20260904014104 | 61 | 51 | 1.0 | 2.0 | 0.00 | 0.06 | 0.06 | 73 | 1012.5 |
| 20260904013601 | 61 | 29 | 1.0 | 2.0 | 0.00 | 0.06 | 0.06 | 73 | 1012.5 |
| 20260904013057 | 61 | 79 | 1.0 | 2.0 | 0.00 | 0.06 | 0.06 | 73 | 1012.5 |
| 20260904012556 | 62 | 69 | 1.0 | 2.0 | 0.00 | 0.06 | 0.06 | 71 | 1012.5 |
| 20260904012055 | 62 | 92 | 0.0 | 1.0 | 0.00 | 0.06 | 0.06 | 71 | 1012.5 |
| 20260904011549 | 62 | 120 | 0.0 | 1.0 | 0.00 | 0.06 | 0.06 | 72 | 1012.5 |
| 20260904011045 | 63 | 52 | 1.0 | 2.0 | 0.00 | 0.06 | 0.06 | 70 | 1012.1 |
| 20260904010540 | 64 | 93 | 1.0 | 1.0 | 0.00 | 0.06 | 0.06 | 68 | 1012.5 |
| 20260904010031 | 66 | 72 | 1.0 | 2.0 | 0.00 | 0.06 | 0.06 | 66 | 1012.1 |
| 20260904005525 | 66 | 122 | 0.0 | 1.0 | 0.00 | 0.06 | 0.06 | 64 | 1012.1 |
| 20260904005021 | 65 | 80 | 0.0 | 1.0 | 0.00 | 0.06 | 0.06 | 64 | 1012.1 |
| 20260904004517 | 66 | 100 | 0.0 | 1.0 | 0.00 | 0.06 | 0.06 | 63 | 1012.1 |
| 20260904004016 | 66 | 106 | 0.0 | 1.0 | 0.00 | 0.06 | 0.06 | 63 | 1012.1 |
| 20260904003512 | 66 | 90 | 1.0 | 6.0 | 0.00 | 0.06 | 0.06 | 63 | 1012.1 |
| 20260904003008 | 66 | 117 | 0.0 | 1.0 | 0.00 | 0.06 | 0.06 | 64 | 1012.1 |
| 20260904002504 | 65 | 148 | 1.0 | 2.0 | 0.00 | 0.06 | 0.06 | 65 | 1012.5 |
| 20260904002004 | 66 | 121 | 1.0 | 2.0 | 0.00 | 0.06 | 0.06 | 64 | 1012.1 |
| 20260904001459 | 66 | 149 | 0.0 | 2.0 | 0.00 | 0.06 | 0.06 | 63 | 1012.1 |
| 20260904000958 | 65 | 117 | 0.0 | 4.0 | 0.00 | 0.06 | 0.06 | 64 | 1012.1 |
| 20260904000458 | 65 | 100 | 0.0 | 2.0 | 0.00 | 0.06 | 0.06 | 65 | 1012.1 |
| 20260903235954 | 65 | 89 | 1.0 | 3.0 | 0.00 | 0.06 | 0.06 | 65 | 1012.1 |
| 20260903235450 | 65 | 166 | 2.0 | 6.0 | 0.00 | 0.06 | 0.06 | 66 | 1012.1 |
| 20260903234949 | 64 | 118 | 0.0 | 2.0 | 0.00 | 0.06 | 0.06 | 69 | 1012.1 |
| 20260903234445 | 64 | 58 | 1.0 | 2.0 | 0.00 | 0.06 | 0.06 | 68 | 1012.1 |
| 20260903233941 | 63 | 83 | 0.0 | 2.0 | 0.00 | 0.06 | 0.06 | 69 | 1012.1 |
| 20260903233437 | 64 | 129 | 0.0 | 2.0 | 0.00 | 0.06 | 0.06 | 69 | 1012.1 |
| 20260903232932 | 63 | 189 | 3.0 | 4.0 | 0.00 | 0.06 | 0.06 | 68 | 1012.5 |